Location: Morrison Observatory
(41.7012°N, 86.2315°W)
Time: 01:11:17
(UTC-05:00)

Daily predictions for brighter satellites

Satellite Brightness Start Highest point End
(mag) Time Altitude Azimuth Time Altitude Azimuth Time Altitude Azimuth
Cosmos 2369 Rocket 3.7 04:12:46 33° ENE 04:12:46 33° ENE 04:16:43 10° NE
ADEOS II 3.6 04:16:03 10° NNE 04:19:22 33° NE 04:19:22 33° NE
Okean O Rocket 4.5 04:28:41 10° NNE 04:28:48 11° NNE 04:28:48 11° NNE
ATLAS CENTAUR R/B 3.2 04:35:03 77° NE 04:35:08 77° NE 04:48:33 10° SE
USA 234 3.1 04:44:21 10° NE 04:50:56 89° SSE 04:51:19 81° SW
Cosmos 2266 Rocket 4.0 04:45:38 10° N 04:51:49 74° E 04:57:52 10° SSE
CZ-4B R/B 3.4 04:52:03 10° NNE 04:56:41 62° N 04:56:41 62° N
ATLAS 5 CENTAUR R/B 2.5 04:58:27 48° ESE 04:58:33 48° ESE 05:03:25 10° NE
Cosmos 407 Rocket 4.4 04:59:44 10° N 05:04:56 48° ENE 05:10:04 10° SE
Cosmos 1943 Rocket 2.8 05:03:56 29° SSE 05:06:27 52° ESE 05:11:49 10° NNE
Cosmos 972 Rocket 3.9 05:09:25 76° SSE 05:09:44 80° ESE 05:15:06 10° NNE
Cosmos 1867 3.7 05:12:25 62° NNW 05:12:25 62° NNW 05:17:24 10° NNE
Lacrosse 5 2.7 05:12:00 38° SSE 05:13:15 46° SE 05:18:06 10° NE
Sich 1 Rocket 4.2 05:12:35 10° N 05:17:05 56° E 05:21:30 10° SSE
CZ-4C R/B 4.1 05:12:58 10° SSE 05:17:12 25° ESE 05:21:49 10° ENE
Tiangong 1 3.9 05:19:06 13° SE 05:19:06 13° SE 05:19:57 10° ESE
Okean-O 2.7 05:19:07 10° NNE 05:23:35 75° ESE 05:25:06 40° S
Cosmos 1908 Rocket 3.7 05:24:42 10° N 05:29:12 73° E 05:33:39 10° SSE
Cosmos 1190 Rocket 3.9 05:24:37 10° NNW 05:29:54 90° SW 05:35:11 10° SSE
Meteor 1-31 Rocket 2.7 05:27:36 10° NNE 05:31:27 86° NNE 05:31:27 86° NNE
CZ-4B R/B 3.7 05:30:40 10° NNE 05:34:35 90° WNW 05:35:27 55° SSW
Feng Yun 1-1 Rocket 4.3 05:30:20 10° NNE 05:36:13 89° WNW 05:42:09 10° SSW
Cosmos 1624 Rocket 4.1 05:42:42 42° WSW 05:44:01 53° WNW 05:49:14 10° N
SKYMED 2 4.2 05:40:22 10° SSE 05:44:37 57° ENE 05:48:53 10° N
Cosmos 921 Rocket 4.4 05:46:31 24° NNW 05:46:31 24° NNW 05:48:49 10° N
Cosmos 2056 Rocket 3.5 05:43:43 42° WSW 05:45:04 55° WNW 05:50:10 10° NNE
BREEZE M DEB (TANK) 4.5 05:38:29 27° W 05:47:20 64° NNW 05:52:33 10° ENE
Cosmos 1933 4.4 05:52:19 29° NW 05:52:19 29° NW 05:54:52 10° N
Okean 2 Rocket 3.9 05:46:57 10° N 05:51:15 53° E 05:55:33 10° SSE
NOAA 6 4.0 05:48:59 10° NNE 05:54:11 88° ESE 05:59:20 10° SSW
Cosmos 2369 Rocket 2.9 05:54:36 31° WNW 05:55:34 33° WNW 06:00:40 10° N
Cosmos 1954 Rocket 4.2 05:52:40 10° NNW 05:58:00 78° ENE 06:03:19 10° SSE
S3M 4.3 05:51:55 10° S 05:58:14 71° E 06:04:30 10° NNE
ADEOS II 3.1 05:56:18 10° NNW 06:00:20 25° WNW 06:00:20 25° WNW
Ariane Rocket 4.1 05:58:38 10° NNE 06:03:33 46° E 06:08:24 10° S
SL-12 R/B (Aux Motor) 4.2 06:04:26 33° WNW 06:05:43 71° NNE 06:07:53 10° ESE
Thor Agena Rocket 3.8 06:01:52 10° S 06:06:52 45° W 06:11:50 10° NNW
Cosmos 1553 Rocket 4.0 06:01:12 10° S 06:07:21 86° E 06:13:39 10° N
Lacrosse 5 rocket 3.7 06:07:13 10° N 06:08:27 11° NNE 06:09:42 10° NE
Cosmos 1703 Rocket 3.6 06:04:36 10° SSW 06:08:50 54° W 06:13:07 10° N
Cosmos 1833 4.2 06:06:43 10° NNW 06:12:11 56° WSW 06:17:38 10° S
DMSP B5D1-3 4.5 06:10:23 10° SSE 06:15:29 89° WSW 06:20:37 10° NNW
FAST 4.4 06:14:26 10° NNW 06:17:01 64° W 06:20:02 10° S
Cosmos 1656 Rocket 3.7 06:11:26 10° SSW 06:17:07 89° WNW 06:22:51 10° NNE
Cosmos 1452 Rocket 3.6 06:21:25 10° SW 06:26:36 57° WNW 06:31:50 10° NNE
Cosmos 2221 Rocket 3.9 06:23:31 10° SSW 06:27:52 44° WNW 06:32:15 10° N
Meteor 1-14 Rocket 4.4 06:23:17 10° NNW 06:28:55 51° W 06:34:25 10° SSW
Radarsat Rocket 4.4 06:23:01 10° N 06:30:26 66° WNW 06:36:55 10° SSW
Cosmos 1782 2.8 06:27:17 10° S 06:31:14 87° E 06:35:14 10° N
COSMO-SKYMED 1 2.9 06:28:35 10° S 06:32:40 41° W 06:36:48 10° NNW
USA 234 4.0 06:27:41 10° NE 06:33:29 35° NNW 06:38:41 13° W
Meteor 1-20 Rocket 4.2 06:29:29 10° NNW 06:35:14 74° W 06:40:49 10° S
Cosmos 1741 Rocket 4.1 06:32:07 10° NNW 06:37:23 81° ENE 06:42:39 10° SSE
Abrixas 3.8 06:38:22 15° WNW 06:40:05 25° NNW 06:42:35 10° NE
Meteor 2-11 Rocket 4.5 06:34:55 10° S 06:41:01 87° W 06:47:11 10° N
USA 81 4.0 06:37:10 10° SSW 06:42:25 71° W 06:47:41 10° N
ATLAS 5 CENTAUR R/B 3.0 06:40:02 13° W 06:43:29 26° NW 06:47:54 10° NNE
Meteor 1-28 Rocket 3.7 06:40:53 10° SSW 06:44:20 37° W 06:47:50 10° NNW
Cosmos 1943 Rocket 3.2 06:46:04 10° WSW 06:50:29 24° NW 06:54:58 10° N
CZ-4 R/B 2.1 06:48:40 10° NNE 06:52:50 63° E 06:56:55 10° S
Tiangong 1 1.2 06:50:55 10° WSW 06:53:48 64° SSE 06:56:45 10° E
Cosmos 1602 4.4 06:51:10 10° N 06:55:07 63° E 06:59:02 10° SSE
Cosmos 1745 Rocket 4.2 06:50:13 10° NNW 06:56:04 47° W 07:01:52 10° SSW
Lacrosse 5 2.6 06:51:40 10° W 06:56:21 36° NNW 07:01:02 10° NNE
Meteor 2-6 Rocket 4.1 06:57:16 10° SSW 07:02:37 67° W 07:08:01 10° N
Cosmos 1633 2.6 06:59:24 10° N 07:03:04 86° E 07:06:40 10° S
CSL-04 DEB 4.3 06:59:40 10° NNE 07:03:41 84° WNW 07:07:37 10° SSW
CSL-04 Rocket 3.7 06:58:46 10° N 07:04:02 59° WNW 07:09:20 10° SSW
Cosmos 1606 3.0 07:01:09 10° SSW 07:04:51 46° W 07:08:38 10° N
CZ-4C R/B 2.5 07:00:06 10° WSW 07:05:15 49° NW 07:11:07 10° NNE
ATLAS 3B R/B 3.2 06:57:53 10° SSW 07:05:27 75° ESE 07:12:46 10° NE
YAOGAN 1 3.3 07:02:06 10° NNE 07:06:23 60° E 07:10:39 10° S
